Regional Weather Roundup
Issued by NWS

Home | Current Version | Previous Version | Graphics & Text | Print | Product List | Glossary On
Versions: 1 2 3 4 5 6 7 8 9 10 11 12 13 14 15 16 17 18 19 20 21 22 23 24 25 26 27 28 29 30 31 32 33 34 35 36 37 38 39 40 41 42 43 44 45 46 47 48 49 50
000
ASUS45 KABQ 260310
RWRNM
WEATHER ROUNDUP FOR NEW MEXICO
NATIONAL WEATHER SERVICE ALBUQUERQUE NM
800 PM MST THU DEC 25 2014

NOTE: "FAIR" MEANS FEW OR NO CLOUDS BELOW 12,000 FEET AGL WITH NO
       SIGNIFICANT WEATHER OR OBSTRUCTIONS TO VISION.

      THIS PRODUCT IS RELEASED AS TWO VERSIONS.  ONE VERSION NEAR
      THE TOP OF THE HOUR CONTAINING PRELIMINARY DATA FROM ALBUQUERQUE
      AND OTHER STATIONS.  A FINAL VERSION WITH ADDITIONAL DATA IS
      ISSUED ABOUT 10 MINUTES AFTER THE HOUR.

NMZ501-503-504-510>518-260400-
NORTHWEST PLATEAU/NORTHCENTRAL MOUNTAINS

CITY           SKY/WX    TMP DP  RH WIND       PRES   REMARKS
FARMINGTON     CLOUDY    31  22  69 SW6       29.66R WCI  25
LOS ALAMOS     CLOUDY    35  22  59 CALM      29.67R
SANTA FE       CLOUDY    35  20  54 W7        29.66R WCI  29
ANGEL FIRE     CLOUDY    28  24  86 SW9       29.68R WCI  19

$$
NMZ402-403-502-505>509-260400-
WESTCENTRAL MOUNTAINS/SOUTHWEST MOUNTAINS

CITY           SKY/WX    TMP DP  RH WIND       PRES   REMARKS
GALLUP         LGT SNOW  27  25  92 CALM      29.69S FOG
GRANTS         CLOUDY    29  24  83 SW3       29.73R
SILVER CITY    PTCLDY    43  19  39 W15       29.72S

$$
NMZ407-409-411-412-260400-
SOUTHERN DESERTS

CITY           SKY/WX    TMP DP  RH WIND       PRES   REMARKS
LORDSBURG      CLOUDY    52  23  32 NW3G23    29.72R
DEMING         CLEAR     53  18  25 SW18G26   29.70F
LAS CRUCES     CLEAR     51  20  29 SW13      29.73S
HOLLOMAN AFB   PTCLDY    51  19  27 W14       29.69R
ALAMOGORDO     PTCLDY    50  18  27 S9        29.72R
T OR C         PTCLDY    52  20  28 SW16G23   29.67R

$$
NMZ519>523-260400-
CENTRAL VALLEYS/CENTRAL HIGHLANDS

CITY           SKY/WX    TMP DP  RH WIND       PRES   REMARKS
ALBUQUERQUE    MOCLDY    41  25  53 NW14      29.67R
DOUBLE EAGLE   PTCLDY    36  23  60 W14       29.68R WCI  27
MORIARTY ARPT  CLOUDY    35  14  42 NW7       29.67R WCI  29
CLINES CORNERS CLOUDY    38  10  31 S16       29.65R WCI  29
BELEN          MOCLDY    42  21  44 NW10      29.65R
SOCORRO        FAIR      46  14  27 W8        29.65R

$$
NMZ524>526-539-540-260400-
SOUTHCENTRAL MOUNTAINS

CITY           SKY/WX    TMP DP  RH WIND       PRES   REMARKS
RUIDOSO        PTCLDY    45  16  31 SW28G39   29.73R

$$
NMZ527>531-260400-
NORTHEAST HIGHLANDS/NORTHEAST PLAINS

CITY           SKY/WX    TMP DP  RH WIND       PRES   REMARKS
LAS VEGAS      PTCLDY    33  15  47 SW7       29.65R WCI  27
RATON          MOCLDY    31  22  69 E6        29.64R WCI  25
CLAYTON        CLEAR     38  16  40 SW7       29.64R WCI  33

$$
NMZ532>537-260400-
EASTCENTRAL PLAINS

CITY           SKY/WX    TMP DP  RH WIND       PRES   REMARKS
TUCUMCARI      CLEAR     38  19  46 S6        29.63S WCI  33
CANNON AFB     CLEAR     37  20  51 S10       29.69R WCI  30
CLOVIS AIRPORT CLEAR     39  21  48 S15       29.68F WCI  31

$$
NMZ028-029-538-260400-
SOUTHEAST PLAINS

CITY           SKY/WX    TMP DP  RH WIND       PRES   REMARKS
ROSWELL        CLEAR     39  17  41 SW5       29.67S
ARTESIA        CLEAR     45  21  39 S12       29.70R
CARLSBAD       CLEAR     52  17  25 S12       29.68S
HOBBS          MOCLDY    45  25  45 SE12      29.74S


$$


USA.gov is the U.S. government's official web portal to all federal, state and local government web resources and services.